Location: Boneville
(33.4331°N, 82.4399°W)
Time: 22:51:14
(UTC+00:00)

Hubble Space Telescope - Pass Details

Date: 26 September 2024
Orbit: 504 x 508 km, 28.5° (Epoch: 06 October)

Event Time Altitude Azimuth Distance (km) Brightness Sun altitude
Exits shadow 09:40:24 13° 171° (S) 1,542 3.0 -21.7°
Maximum altitude 09:41:11 13° 158° (SSE) 1,507 3.1 -21.5°
Drops below altitude 10° 09:43:04 10° 129° (SE) 1,696 3.8 -21.1°
Sets 09:46:17 0° 101° (E) 2,582 5.4 -20.5°
